Temperature
9 9 9 9 9 9 9 10 10 10 10 10 10 10 10 10 10 10 10 10 10 10 10 10 10 10 10 10 11 11 11 11 11 11 11 11 11 11 11 11 11 11 11
9 9 9 9 9 9 9 9 9 9 9 9 9 9 9 9 9 9 9 10 10 10 10 10 10 10 10 10 10 10 10 10 10 10 10 10 11 11 11 11 11 11 11
8 8 8 8 8 8 8 8 8 8 9 9 9 9 9 9 9 9 9 9 9 9 10 10 10 10 9 9 10 10 10 10 10 10 10 10 10 10 10 10 11 11 11
7 7 8 8 8 8 8 8 8 8 8 8 8 8 8 8 8 8 8 8 9 9 9 9 9 9 9 9 9 9 9 9 9 9 9 10 10 10 10 10 10 10 10
7 7 7 7 7 7 7 7 7 7 7 7 8 8 8 8 8 8 8 8 8 8 8 9 9 9 9 9 9 9 9 9 9 9 9 9 9 9 10 10 10 10 10
6 6 6 6 6 6 6 6 6 7 7 7 7 7 8 8 8 8 8 8 8 8 8 8 8 8 8 8 8 9 9 9 9 9 9 9 9 9 9 9 9 9 9
5 5 5 6 6 6 6 6 6 6 6 6 6 6 7 7 7 7 7 7 7 7 7 7 7 8 8 8 8 8 8 8 9 9 8 8 9 9 9 9 9 9 9
5 5 5 5 5 5 5 5 5 5 5 5 5 5 6 6 6 7 7 7 7 7 7 7 7 7 7 7 8 8 8 8 8 8 8 8 8 8 8 8 8 8 9
4 4 4 4 4 4 4 4 5 5 4 5 5 5 5 6 5 6 6 6 7 7 7 7 7 7 7 7 7 7 7 7 7 8 8 8 8 8 8 8 8 8 8
4 4 4 4 4 4 4 4 4 4 4 4 4 4 4 4 4 5 5 6 6 6 6 6 6 6 6 7 7 7 7 7 7 7 7 7 7 7 7 7 7 8 8
3 3 3 3 3 3 3 3 3 3 3 3 3 3 4 4 4 4 4 5 5 5 5 5 6 6 6 6 6 6 7 7 7 7 7 7 7 7 7 7 7 7 7
2 2 2 2 2 2 3 3 3 3 3 3 3 3 3 3 3 3 3 3 4 4 5 5 5 5 5 6 6 6 6 6 6 6 6 6 6 6 7 7 7 7 7
2 2 2 2 2 2 2 2 2 2 2 2 2 2 2 2 3 3 3 3 3 3 4 4 4 4 5 5 5 5 5 6 6 6 6 6 6 6 6 6 6 6 6
1 1 1 1 1 1 1 2 2 2 2 2 2 2 2 2 2 2 2 2 2 2 3 3 4 4 4 4 4 5 5 5 5 5 5 5 5 5 5 6 6 6 6
0 0 1 1 1 1 1 1 1 1 1 1 1 1 1 1 1 1 2 1 1 1 2 2 3 3 3 3 3 4 4 4 4 4 5 5 5 5 5 5 5 5 5
0 0 0 0 0 0 0 0 0 1 0 1 1 1 1 1 1 1 1 1 1 1 1 1 2 2 2 3 3 3 3 3 4 4 4 4 4 4 5 5 5 5 5
-0 -0 -0 -0 -0 -0 -0 -0 -0 0 -0 0 0 0 0 0 0 0 0 0 0 0 0 1 1 1 2 2 2 2 2 3 3 3 4 4 4 4 4 4 4 4 5
-1 -1 -1 -1 -1 -1 -1 -1 -0 -0 -1 -1 -0 -0 -0 -0 -0 -0 -0 -0 -0 -0 -0 -0 0 0 1 1 1 2 2 2 2 3 3 3 3 3 4 4 4 4 4
-1 -1 -1 -1 -1 -1 -1 -1 -1 -1 -1 -1 -1 -1 -1 -1 -1 -1 -1 -1 -1 -1 -1 -1 -0 -0 0 0 1 1 1 1 1 2 2 3 3 3 3 3 3 3 3
-2 -2 -2 -2 -2 -2 -2 -2 -2 -2 -2 -2 -2 -2 -2 -2 -2 -2 -2 -2 -2 -2 -1 -1 -1 -1 -1 -1 -0 -0 0 0 1 1 1 2 2 2 2 3 3 3 3
-3 -2 -2 -2 -2 -2 -2 -2 -3 -2 -3 -3 -3 -2 -2 -2 -2 -2 -2 -2 -2 -2 -2 -2 -2 -2 -1 -1 -1 -1 -1 -0 -0 -0 0 1 1 1 2 2 2 2 2
-3 -3 -3 -3 -3 -3 -3 -3 -3 -3 -3 -3 -3 -3 -3 -3 -3 -3 -3 -3 -3 -3 -3 -3 -3 -2 -2 -2 -2 -2 -2 -1 -1 -1 -1 -0 0 0 1 1 1 1 1
-4 -4 -4 -4 -4 -4 -4 -4 -4 -4 -4 -4 -4 -4 -4 -4 -4 -4 -4 -4 -4 -4 -3 -3 -3 -3 -3 -3 -3 -2 -2 -2 -2 -2 -2 -1 -1 -1 -0 0 0 1 1
-5 -5 -5 -5 -5 -4 -5 -5 -5 -5 -5 -5 -5 -5 -5 -5 -4 -5 -5 -4 -4 -4 -4 -4 -4 -4 -3 -3 -3 -3 -3 -3 -3 -2 -2 -2 -2 -2 -1 -1 -1 -0 -0
-5 -5 -6 -5 -5 -5 -5 -5 -6 -6 -6 -6 -6 -6 -5 -5 -5 -5 -5 -5 -5 -4 -4 -4 -4 -4 -4 -4 -4 -4 -4 -4 -4 -3 -3 -3 -3 -3 -2 -2 -1 -1 -1
-6 -6 -6 -6 -6 -6 -6 -6 -6 -7 -7 -6 -6 -6 -6 -6 -6 -6 -6 -6 -5 -5 -5 -5 -5 -4 -4 -4 -4 -4 -4 -4 -4 -4 -4 -4 -4 -4 -4 -3 -2 -2 -2
Wind_Speed
1 1 1 1 1 1 1 1 1 1 1 0 0 0 1 1 0 0 1 3 3 2 1 1 2 2 2 3 2 2 2 2 2 2 2 2 1 2 2 3 2 3 3
1 1 1 1 1 1 1 1 1 0 0 1 1 1 1 1 1 1 1 0 2 2 2 2 1 1 1 1 2 2 2 1 0 0 1 1 2 1 2 2 2 1 1
2 2 2 2 1 1 1 1 1 1 1 1 2 2 2 2 2 2 2 2 1 0 1 2 2 1 1 0 1 1 0 1 1 1 1 1 1 1 1 1 1 1 1
2 2 2 2 1 1 1 1 1 1 1 1 2 2 2 2 3 3 3 2 2 2 1 1 2 2 2 1 1 1 1 0 0 0 1 1 2 2 1 2 2 2 2
3 3 2 2 2 1 1 2 2 2 2 2 2 3 3 3 3 3 3 3 3 3 3 2 1 1 2 2 2 1 1 1 1 2 2 2 3 3 3 4 4 4 4
4 3 3 3 3 2 2 2 2 2 2 3 3 3 3 4 3 4 4 3 3 4 4 3 3 2 1 2 2 2 2 2 3 3 4 4 4 5 5 5 5 6 7
4 4 4 3 3 3 3 3 3 3 2 2 2 3 3 4 4 3 3 3 3 4 4 3 3 2 3 3 3 3 3 4 4 5 5 6 6 6 6 7 6 7 7
4 4 4 4 4 4 4 4 3 3 3 2 2 2 3 3 3 3 3 4 4 4 4 4 4 3 3 3 4 4 4 5 6 6 6 7 7 7 7 7 7 8 8
5 5 5 4 5 4 4 5 4 5 4 4 3 3 3 3 2 3 4 4 4 4 4 4 5 5 5 4 5 5 6 6 7 7 8 8 8 8 9 9 10 9 9
5 5 5 5 5 5 5 5 6 5 6 5 4 5 5 3 3 3 4 4 4 5 5 5 5 6 6 6 6 6 6 7 8 9 9 10 10 10 10 10 11 11 10
4 5 5 5 5 5 5 6 6 6 6 6 6 5 5 5 6 4 5 5 5 5 5 6 6 6 7 7 6 6 7 8 9 10 11 12 12 12 12 12 12 12 12
4 5 5 6 6 6 6 6 6 7 7 8 7 7 6 6 6 6 6 6 6 6 6 6 7 6 7 7 7 7 8 9 10 11 12 12 13 12 12 13 13 12 12
4 5 5 6 6 7 7 7 7 8 8 9 8 8 8 8 7 7 7 7 8 6 6 6 6 6 7 7 7 8 9 11 11 12 13 14 13 13 13 13 13 13 13
5 6 6 7 8 8 8 7 7 8 8 9 9 10 8 8 7 7 7 7 7 7 7 7 5 6 6 7 7 9 10 11 12 13 14 14 15 14 14 14 14 14 15
5 6 7 7 8 8 8 8 7 8 8 9 9 9 9 8 8 8 8 8 8 8 9 8 5 6 6 7 8 9 11 12 13 15 15 15 15 15 14 14 15 15 15
6 6 7 7 7 8 8 8 8 8 8 8 7 8 8 7 8 8 8 8 9 10 10 8 7 7 7 8 10 11 12 13 14 15 15 15 15 16 15 15 15 15 15
6 6 7 7 7 7 7 7 8 8 9 9 8 9 9 8 8 8 8 9 9 9 11 10 8 8 10 9 9 10 11 11 11 13 15 15 15 15 15 16 16 16 16
5 6 6 6 7 7 7 8 8 8 9 9 9 9 9 8 9 8 8 10 9 10 10 12 10 9 10 9 9 9 9 9 10 12 13 14 14 14 15 15 15 15 15
5 5 5 6 6 6 6 7 8 8 8 8 8 9 9 9 9 8 9 9 9 9 9 10 11 9 8 8 8 8 9 8 9 10 12 13 13 13 14 15 14 14 15
5 5 5 5 6 6 6 6 7 8 8 8 8 9 9 10 10 9 9 9 9 9 9 9 10 9 8 8 7 8 8 7 7 8 9 10 11 12 13 14 14 15 15
5 5 5 5 6 5 6 6 7 7 7 8 8 8 8 9 10 9 8 9 9 9 9 9 9 9 8 7 7 7 8 8 8 7 7 7 8 8 10 12 13 13 14
5 4 5 5 5 5 5 7 7 7 7 7 7 7 7 8 9 11 12 12 12 11 10 9 9 10 11 10 9 8 8 8 8 5 6 8 7 8 8 9 10 12 13
5 5 5 5 5 6 7 7 7 6 7 7 7 7 7 7 8 8 10 11 12 13 13 12 12 13 12 11 10 10 10 10 10 8 7 9 7 9 8 9 11 12 12
5 5 5 5 6 6 6 7 7 6 6 7 7 8 8 8 8 8 9 10 11 11 11 11 12 13 12 11 11 11 11 11 11 8 8 9 8 8 7 8 10 11 12
5 5 5 6 6 6 6 7 7 5 5 7 7 8 8 9 9 10 10 10 11 10 10 12 14 15 16 16 13 9 10 9 10 9 7 7 8 7 7 7 8 10 10
5 5 5 5 6 6 7 7 7 5 6 6 6 7 8 9 10 11 10 10 11 11 9 9 10 12 13 13 14 12 11 10 9 8 6 6 6 5 5 5 6 6 8
Wind_Direction
341 354 352 353 349 348 0 13 64 57 31 358 6 358 9 344 312 352 39 38 24 31 77 92 79 72 96 98 105 117 118 106 93 83 66 54 86 104 134 127 113 98 85
294 303 311 310 325 329 322 307 274 237 304 308 305 303 295 296 276 270 274 72 51 34 36 55 43 31 98 124 108 96 96 115 125 46 29 35 45 66 135 136 127 122 104
260 268 272 271 290 290 303 292 274 251 267 281 270 273 279 279 266 261 250 239 216 118 26 10 4 345 337 194 167 166 125 46 64 70 354 325 341 13 210 182 161 154 122
248 250 257 260 269 273 282 273 270 258 247 266 274 273 270 270 263 257 245 235 227 230 232 317 347 331 321 299 261 247 225 291 331 278 316 323 302 282 270 235 229 223 223
237 238 242 240 233 252 262 264 252 263 259 263 272 274 264 254 254 248 238 231 227 232 236 222 240 298 298 295 262 243 253 263 274 268 272 289 290 282 269 265 249 241 235
238 236 236 227 220 228 241 255 254 253 262 259 260 266 263 251 245 242 239 234 231 231 234 232 225 219 246 282 260 248 255 265 266 268 270 268 276 273 266 268 262 252 242
245 243 244 226 222 229 239 248 255 245 258 263 252 261 254 238 237 236 237 242 235 233 233 235 233 241 243 258 253 254 254 257 265 268 269 267 265 267 266 264 263 258 253
247 247 250 239 229 231 236 236 247 247 250 246 249 249 249 232 221 231 234 240 243 237 235 234 234 244 257 256 246 240 250 255 257 261 266 268 265 261 263 264 264 264 257
245 240 242 246 238 230 233 232 232 243 240 240 241 239 240 244 264 227 234 234 238 236 237 239 242 248 254 255 254 240 246 254 261 260 261 264 268 266 260 262 261 264 265
248 240 240 244 245 237 234 235 232 241 237 237 236 241 250 260 247 249 231 234 243 246 243 245 250 248 253 250 256 258 249 253 260 263 261 262 266 270 269 264 261 262 266
252 249 246 247 247 244 240 239 237 238 235 235 236 238 243 245 241 245 257 253 250 247 252 252 248 248 250 248 251 261 255 253 257 263 264 263 264 266 269 268 265 265 264
258 253 250 249 250 249 244 241 240 240 240 237 237 236 237 236 233 236 250 259 264 263 262 257 250 245 245 248 253 269 266 256 258 262 266 265 264 265 268 270 267 266 266
262 259 253 250 251 251 249 243 242 240 241 237 235 238 238 240 246 246 250 259 266 269 264 254 247 247 244 247 256 265 266 259 258 262 267 267 265 265 267 268 268 267 267
262 263 255 251 252 253 250 245 245 242 244 241 238 238 239 240 239 242 244 253 264 265 259 257 253 247 249 254 263 267 265 264 260 260 265 267 265 264 264 265 266 267 268
266 262 255 250 250 250 249 246 244 242 245 243 242 240 238 241 241 242 239 237 248 260 262 258 253 244 253 261 269 268 269 266 266 262 261 264 262 261 261 262 264 265 266
268 266 260 254 251 249 248 245 247 244 245 245 242 242 243 243 241 241 240 242 243 251 260 259 264 266 267 270 269 270 271 271 264 263 260 260 259 257 257 260 263 263 262
271 266 261 255 251 250 249 246 244 243 246 247 244 242 244 245 243 243 244 244 242 245 254 265 266 269 269 268 273 272 271 272 267 263 263 260 258 256 256 258 260 260 260
278 271 265 258 253 251 248 248 246 245 246 246 246 246 247 245 245 246 247 247 245 244 248 260 266 267 269 269 272 273 276 274 272 267 266 263 258 256 256 255 255 257 259
285 279 267 263 258 255 253 253 250 247 247 248 248 247 248 246 247 247 247 251 253 251 248 254 264 269 271 269 273 275 275 274 276 272 268 263 254 254 255 255 255 256 258
289 281 273 268 263 258 256 257 257 251 253 254 253 251 250 247 249 248 250 251 252 255 253 253 259 266 268 270 268 271 275 274 276 280 275 266 257 254 255 256 256 256 257
290 286 281 275 271 263 255 253 259 255 256 259 259 256 255 255 257 256 253 253 251 252 254 254 258 264 265 265 263 267 270 278 277 270 272 270 261 258 256 254 253 252 254
291 290 283 279 276 270 273 268 267 262 261 260 262 263 262 259 257 258 258 261 259 255 256 255 258 258 261 264 265 265 269 274 275 271 275 276 267 258 257 253 252 251 252
294 291 287 286 278 277 280 277 275 267 263 265 265 264 264 262 261 260 263 262 262 260 258 259 260 260 262 263 263 262 262 264 268 274 275 274 271 262 260 257 256 252 252
295 292 290 286 277 278 285 286 283 272 267 267 266 265 265 265 264 264 265 265 263 261 259 257 258 262 262 263 260 260 264 268 272 269 262 270 272 270 270 262 256 252 253
298 296 290 290 284 281 285 287 284 277 272 272 271 269 267 266 269 268 266 266 266 266 267 260 261 265 266 263 261 260 258 260 267 269 260 261 271 276 275 269 256 248 250
295 298 296 294 291 283 286 288 285 275 275 278 278 275 270 269 273 273 266 265 265 268 270 271 267 266 265 262 257 249 250 252 262 268 256 250 265 277 279 267 261 260 257
Height
1530 1531 1531 1532 1532 1533 1533 1533 1534 1534 1535 1535 1535 1536 1536 1536 1536 1537 1537 1538 1538 1539 1539 1539 1539 1539 1540 1540 1540 1541 1541 1541 1542 1542 1542 1543 1543 1543 1543 1543 1544 1544 1544
1528 1528 1529 1529 1530 1531 1531 1531 1532 1532 1533 1533 1533 1534 1534 1534 1535 1535 1535 1536 1536 1537 1537 1537 1537 1538 1538 1538 1539 1539 1539 1540 1540 1541 1541 1541 1542 1542 1542 1542 1543 1543 1543
1525 1526 1526 1527 1527 1528 1528 1529 1530 1530 1531 1531 1531 1532 1532 1532 1533 1533 1533 1533 1534 1534 1535 1535 1535 1535 1536 1536 1537 1537 1538 1538 1538 1539 1539 1540 1540 1540 1541 1541 1541 1542 1542
1523 1523 1523 1524 1524 1525 1526 1526 1527 1527 1528 1528 1529 1529 1530 1530 1530 1531 1531 1531 1531 1532 1532 1533 1533 1533 1534 1534 1534 1535 1535 1536 1536 1537 1537 1538 1538 1539 1539 1540 1540 1541 1541
1519 1520 1521 1521 1522 1522 1523 1524 1524 1525 1525 1525 1526 1526 1527 1527 1527 1528 1528 1528 1528 1529 1529 1530 1530 1531 1531 1532 1532 1533 1533 1533 1534 1534 1535 1535 1536 1537 1537 1538 1538 1539 1539
1516 1517 1517 1518 1518 1519 1520 1520 1521 1522 1522 1523 1523 1523 1523 1524 1524 1524 1525 1525 1525 1526 1526 1527 1527 1528 1528 1529 1529 1530 1530 1530 1531 1531 1532 1533 1533 1534 1535 1535 1536 1536 1537
1513 1513 1514 1514 1514 1515 1516 1517 1517 1518 1519 1519 1520 1520 1520 1520 1520 1521 1522 1522 1522 1523 1523 1524 1524 1525 1525 1526 1526 1527 1527 1527 1528 1528 1529 1530 1530 1531 1532 1532 1533 1533 1534
1509 1509 1510 1510 1510 1511 1512 1513 1513 1514 1515 1516 1517 1517 1518 1518 1517 1517 1518 1518 1519 1520 1520 1521 1521 1522 1522 1522 1523 1523 1524 1524 1524 1525 1526 1526 1527 1528 1528 1529 1530 1530 1531
1505 1505 1506 1506 1507 1507 1508 1509 1509 1510 1511 1512 1513 1515 1515 1514 1514 1514 1514 1515 1515 1516 1516 1517 1517 1518 1518 1519 1519 1520 1520 1520 1521 1521 1522 1522 1523 1524 1524 1525 1526 1527 1527
1501 1501 1502 1502 1503 1503 1503 1504 1505 1506 1507 1508 1509 1510 1512 1511 1512 1511 1511 1511 1511 1512 1512 1512 1513 1514 1514 1514 1514 1515 1515 1516 1516 1517 1517 1518 1519 1519 1520 1521 1522 1522 1523
1496 1497 1497 1498 1498 1498 1498 1499 1500 1501 1502 1503 1504 1505 1506 1507 1507 1507 1507 1507 1507 1507 1507 1508 1508 1509 1509 1509 1510 1510 1511 1511 1512 1512 1513 1513 1514 1515 1515 1516 1517 1518 1518
1492 1492 1492 1493 1493 1493 1494 1494 1495 1496 1497 1498 1499 1500 1501 1502 1503 1503 1503 1502 1502 1502 1502 1502 1503 1503 1504 1504 1504 1505 1505 1506 1506 1507 1507 1508 1509 1510 1510 1511 1511 1512 1513
1487 1487 1487 1488 1488 1488 1489 1489 1489 1491 1491 1492 1493 1495 1496 1497 1498 1499 1499 1498 1497 1497 1497 1497 1497 1498 1498 1499 1499 1499 1499 1500 1501 1501 1502 1502 1503 1504 1504 1505 1505 1506 1507
1482 1482 1482 1482 1483 1483 1483 1484 1484 1485 1485 1486 1487 1489 1490 1491 1492 1493 1494 1494 1493 1492 1491 1492 1492 1492 1492 1492 1493 1493 1493 1494 1495 1495 1496 1496 1497 1497 1498 1499 1499 1500 1501
1477 1477 1477 1477 1477 1477 1478 1478 1478 1479 1480 1480 1481 1483 1484 1485 1486 1487 1487 1488 1489 1487 1485 1486 1487 1487 1487 1486 1486 1487 1487 1487 1488 1489 1489 1489 1490 1490 1491 1492 1493 1493 1494
1472 1472 1471 1471 1472 1472 1472 1473 1473 1473 1474 1474 1475 1476 1477 1479 1480 1480 1481 1481 1482 1482 1479 1479 1481 1481 1481 1480 1480 1481 1481 1481 1481 1481 1482 1482 1483 1483 1484 1485 1485 1486 1487
1467 1466 1466 1466 1466 1466 1467 1467 1467 1467 1468 1469 1469 1470 1471 1472 1473 1474 1474 1474 1475 1475 1473 1472 1474 1474 1475 1474 1474 1474 1474 1474 1473 1474 1474 1475 1475 1476 1476 1477 1478 1479 1479
1461 1461 1461 1460 1460 1460 1461 1461 1461 1461 1462 1462 1462 1463 1464 1465 1466 1466 1467 1467 1467 1468 1467 1465 1466 1467 1467 1468 1467 1467 1467 1466 1466 1466 1467 1467 1467 1468 1469 1469 1470 1471 1471
1456 1455 1455 1454 1455 1455 1454 1454 1455 1455 1455 1455 1456 1456 1457 1458 1458 1459 1460 1460 1460 1461 1461 1460 1458 1460 1460 1461 1460 1460 1460 1459 1459 1459 1459 1459 1460 1460 1461 1461 1462 1462 1463
1451 1450 1449 1449 1449 1449 1448 1448 1449 1449 1449 1449 1449 1450 1450 1451 1452 1453 1453 1453 1454 1454 1454 1453 1452 1453 1453 1453 1454 1453 1452 1452 1451 1452 1452 1452 1452 1452 1453 1453 1453 1454 1455
1446 1445 1444 1444 1443 1443 1443 1443 1443 1442 1442 1442 1442 1443 1443 1444 1445 1446 1446 1446 1447 1447 1447 1446 1446 1446 1446 1447 1447 1447 1446 1445 1445 1445 1444 1444 1445 1444 1444 1445 1445 1445 1446
1442 1441 1440 1439 1437 1437 1437 1437 1437 1436 1436 1436 1436 1436 1437 1437 1437 1438 1439 1440 1440 1440 1440 1440 1439 1439 1439 1441 1442 1441 1440 1439 1438 1439 1438 1437 1438 1436 1436 1437 1437 1437 1437
1438 1436 1435 1433 1432 1432 1433 1432 1431 1430 1430 1430 1430 1430 1430 1431 1431 1431 1432 1433 1433 1433 1434 1434 1432 1432 1433 1434 1435 1434 1433 1433 1432 1432 1432 1429 1430 1428 1429 1429 1429 1429 1429
1433 1432 1430 1429 1428 1427 1427 1426 1425 1425 1424 1424 1424 1425 1424 1424 1425 1425 1426 1425 1425 1426 1426 1427 1426 1426 1427 1428 1428 1427 1427 1426 1425 1425 1426 1423 1422 1421 1421 1421 1421 1421 1421
1429 1427 1425 1424 1422 1422 1422 1421 1420 1419 1419 1419 1419 1419 1418 1418 1418 1419 1419 1418 1418 1418 1419 1419 1419 1419 1419 1420 1420 1420 1420 1419 1417 1417 1418 1417 1415 1414 1413 1412 1413 1414 1414
1425 1423 1421 1419 1418 1417 1417 1416 1416 1415 1414 1414 1413 1413 1412 1412 1412 1413 1412 1412 1411 1411 1411 1411 1411 1411 1412 1411 1412 1413 1413 1412 1410 1410 1410 1411 1409 1409 1406 1405 1406 1406 1407